When you browse on this site, cookies collect data to enhance your experience and personalize the content and advertising you see.
Visit our Privacy Policy to learn more. By continuing to use the site, you agree to this use of cookies and data.
  • In Latvia
  • List of Countries
  • For 7 days
  • Water Temperature
  • Weather Map
  • Weather Widgets
  • user-avatar
    Login

    Hourly Weather Atlantic City

    Today, 17 September, Tuesday

    Time Temperature Precipitation Wind Pressure Humidity
    00:00 +21°C° 0 mm 4 mps 762 mmHg 82%
    01:00 +22°C° 0 mm 5 mps 762 mmHg 85%
    02:00 +21°C° 0 mm 5 mps 762 mmHg 83%
    03:00 +20°C° 0 mm 6 mps 762 mmHg 82%
    04:00 +20°C° 0 mm 6 mps 761 mmHg 80%
    05:00 +20°C° 0 mm 6 mps 762 mmHg 76%
    06:00 +20°C° 0 mm 7 mps 763 mmHg 71%
    07:00 +21°C° 0 mm 6 mps 764 mmHg 63%
    08:00 +21°C° 0 mm 7 mps 764 mmHg 58%
    09:00 +22°C° 0 mm 7 mps 764 mmHg 53%
    10:00 +23°C° 0 mm 7 mps 764 mmHg 48%
    11:00 +24°C° 0 mm 7 mps 764 mmHg 46%
    12:00 +24°C° 0 mm 6 mps 764 mmHg 44%
    13:00 +24°C° 0 mm 6 mps 764 mmHg 42%
    14:00 +24°C° 0 mm 6 mps 763 mmHg 44%
    15:00 +25°C° 0 mm 5 mps 763 mmHg 45%
    16:00 +23°C° 0 mm 4 mps 763 mmHg 46%
    17:00 +21°C° 0 mm 4 mps 763 mmHg 52%
    18:00 +19°C° 0 mm 4 mps 764 mmHg 58%
    19:00 +18°C° 0 mm 3 mps 764 mmHg 64%
    20:00 +17°C° 0 mm 3 mps 764 mmHg 66%
    21:00 +17°C° 0 mm 3 mps 764 mmHg 68%
    22:00 +16°C° 0 mm 3 mps 764 mmHg 70%
    23:00 +16°C° 0 mm 3 mps 765 mmHg 71%

    Tomorrow, 18 September, Wednesday

    Time Temperature Precipitation Wind Pressure Humidity
    00:00 +15°C° 0 mm 4 mps 765 mmHg 72%
    01:00 +14°C° 0 mm 4 mps 765 mmHg 73%
    02:00 +14°C° 0 mm 4 mps 765 mmHg 77%
    03:00 +14°C° 0 mm 5 mps 764 mmHg 81%
    04:00 +14°C° 0 mm 5 mps 764 mmHg 85%
    05:00 +15°C° 0 mm 6 mps 765 mmHg 82%
    06:00 +16°C° 0 mm 6 mps 765 mmHg 80%
    07:00 +17°C° 0 mm 6 mps 765 mmHg 78%
    08:00 +18°C° 0.1 mm 7 mps 766 mmHg 72%
    09:00 +20°C° 0.1 mm 7 mps 766 mmHg 66%
    10:00 +21°C° 0.1 mm 8 mps 766 mmHg 61%
    11:00 +21°C° 0 mm 8 mps 766 mmHg 59%
    12:00 +21°C° 0 mm 8 mps 767 mmHg 57%
    13:00 +20°C° 0 mm 8 mps 767 mmHg 55%
    14:00 +20°C° 0 mm 8 mps 766 mmHg 55%
    15:00 +20°C° 0 mm 8 mps 766 mmHg 54%
    16:00 +20°C° 0 mm 8 mps 766 mmHg 53%
    17:00 +18°C° 0 mm 8 mps 766 mmHg 59%
    18:00 +17°C° 0 mm 8 mps 767 mmHg 66%
    19:00 +15°C° 0 mm 8 mps 767 mmHg 72%
    20:00 +15°C° 0 mm 8 mps 767 mmHg 73%
    21:00 +15°C° 0 mm 8 mps 768 mmHg 74%
    22:00 +13°C° 0 mm 8 mps 768 mmHg 75%
    23:00 +13°C° 0 mm 8 mps 768 mmHg 75%

    Day after tomorrow, 19 September, Thursday

    Time Temperature Precipitation Wind Pressure Humidity
    00:00 +14°C° 0 mm 7 mps 768 mmHg 76%
    01:00 +12°C° 0 mm 7 mps 768 mmHg 76%
    02:00 +12°C° 0 mm 7 mps 768 mmHg 74%
    03:00 +11°C° 0 mm 7 mps 768 mmHg 72%
    04:00 +11°C° 0 mm 7 mps 768 mmHg 70%
    05:00 +11°C° 0 mm 6 mps 768 mmHg 67%
    06:00 +11°C° 0 mm 6 mps 768 mmHg 65%
    07:00 +13°C° 0 mm 6 mps 769 mmHg 62%
    08:00 +15°C° 0 mm 6 mps 769 mmHg 59%
    09:00 +17°C° 0 mm 6 mps 769 mmHg 56%
    10:00 +20°C° 0 mm 6 mps 769 mmHg 52%
    11:00 +20°C° 0 mm 6 mps 769 mmHg 50%
    12:00 +21°C° 0 mm 5 mps 769 mmHg 48%
    13:00 +22°C° 0 mm 5 mps 769 mmHg 46%
    14:00 +21°C° 0 mm 5 mps 768 mmHg 47%
    15:00 +21°C° 0 mm 5 mps 768 mmHg 49%
    16:00 +20°C° 0 mm 5 mps 767 mmHg 50%
    17:00 +18°C° 0 mm 4 mps 767 mmHg 56%
    18:00 +15°C° 0 mm 4 mps 768 mmHg 62%
    19:00 +13°C° 0 mm 3 mps 768 mmHg 68%
    20:00 +13°C° 0 mm 3 mps 767 mmHg 69%
    21:00 +13°C° 0 mm 2 mps 767 mmHg 70%
    22:00 +13°C° 0 mm 1 mps 767 mmHg 70%
    23:00 +12°C° 0 mm 2 mps 767 mmHg 74%

    20 September, Friday

    Time Temperature Precipitation Wind Pressure Humidity
    00:00 +11°C° 0 mm 3 mps 766 mmHg 77%
    01:00 +11°C° 0 mm 4 mps 766 mmHg 80%
    02:00 +11°C° 0 mm 4 mps 766 mmHg 77%
    03:00 +11°C° 0 mm 4 mps 766 mmHg 74%
    04:00 +11°C° 0 mm 4 mps 766 mmHg 72%
    05:00 +10°C° 0 mm 5 mps 766 mmHg 68%
    06:00 +12°C° 0 mm 5 mps 766 mmHg 64%
    07:00 +13°C° 0 mm 5 mps 766 mmHg 60%
    08:00 +16°C° 0 mm 5 mps 766 mmHg 54%
    09:00 +20°C° 0 mm 5 mps 766 mmHg 49%
    10:00 +23°C° 0 mm 4 mps 766 mmHg 44%
    11:00 +25°C° 0 mm 4 mps 766 mmHg 42%
    12:00 +26°C° 0 mm 4 mps 766 mmHg 40%
    13:00 +27°C° 0 mm 3 mps 765 mmHg 38%
    14:00 +27°C° 0 mm 4 mps 765 mmHg 40%
    15:00 +27°C° 0 mm 4 mps 765 mmHg 42%
    16:00 +27°C° 0 mm 4 mps 764 mmHg 45%
    17:00 +25°C° 0 mm 4 mps 764 mmHg 53%
    18:00 +21°C° 0 mm 4 mps 764 mmHg 61%
    19:00 +19°C° 0 mm 4 mps 765 mmHg 70%
    20:00 +19°C° 0 mm 4 mps 765 mmHg 71%
    21:00 +19°C° 0 mm 4 mps 765 mmHg 72%
    22:00 +18°C° 0 mm 4 mps 765 mmHg 73%
    23:00 +18°C° 0 mm 4 mps 765 mmHg 74%

    21 September, Saturday

    Time Temperature Precipitation Wind Pressure Humidity
    00:00 +18°C° 0 mm 4 mps 765 mmHg 75%
    01:00 +17°C° 0 mm 4 mps 765 mmHg 76%
    02:00 +17°C° 0 mm 4 mps 765 mmHg 75%
    03:00 +17°C° 0 mm 4 mps 765 mmHg 74%
    04:00 +17°C° 0 mm 4 mps 766 mmHg 74%
    05:00 +17°C° 0 mm 3 mps 766 mmHg 73%
    06:00 +18°C° 0 mm 3 mps 766 mmHg 72%
    07:00 +19°C° 0 mm 3 mps 766 mmHg 71%
    08:00 +21°C° 0 mm 3 mps 766 mmHg 65%
    09:00 +25°C° 0 mm 2 mps 767 mmHg 59%
    10:00 +27°C° 0 mm 2 mps 767 mmHg 52%
    11:00 +29°C° 0 mm 2 mps 767 mmHg 49%
    12:00 +30°C° 0 mm 2 mps 766 mmHg 45%
    13:00 +32°C° 0 mm 1 mps 766 mmHg 41%
    14:00 +31°C° 0 mm 2 mps 766 mmHg 44%
    15:00 +30°C° 0 mm 2 mps 765 mmHg 47%
    16:00 +29°C° 0 mm 2 mps 765 mmHg 50%
    17:00 +27°C° 0 mm 2 mps 765 mmHg 58%
    18:00 +25°C° 0 mm 2 mps 765 mmHg 66%
    19:00 +21°C° 0 mm 3 mps 765 mmHg 74%
    20:00 +21°C° 0 mm 3 mps 765 mmHg 75%
    21:00 +20°C° 0 mm 3 mps 766 mmHg 76%
    22:00 +20°C° 0 mm 3 mps 766 mmHg 78%
    23:00 +20°C° 0 mm 3 mps 766 mmHg 79%

    22 September, Sunday

    Time Temperature Precipitation Wind Pressure Humidity
    00:00 +19°C° 0 mm 3 mps 766 mmHg 81%
    01:00 +19°C° 0 mm 2 mps 766 mmHg 83%
    02:00 +19°C° 0 mm 2 mps 766 mmHg 85%
    03:00 +19°C° 0 mm 2 mps 766 mmHg 87%
    04:00 +18°C° 0 mm 2 mps 765 mmHg 89%
    05:00 +19°C° 0 mm 2 mps 765 mmHg 86%
    06:00 +20°C° 0 mm 2 mps 765 mmHg 83%
    07:00 +21°C° 0 mm 1 mps 765 mmHg 79%
    08:00 +24°C° 0 mm 2 mps 765 mmHg 69%
    09:00 +26°C° 0 mm 2 mps 766 mmHg 58%
    10:00 +29°C° 0 mm 2 mps 766 mmHg 48%
    11:00 +29°C° 0 mm 3 mps 765 mmHg 47%
    12:00 +30°C° 0 mm 4 mps 765 mmHg 45%
    13:00 +30°C° 0 mm 4 mps 764 mmHg 44%
    14:00 +29°C° 0 mm 5 mps 764 mmHg 48%
    15:00 +28°C° 0 mm 5 mps 763 mmHg 52%
    16:00 +28°C° 0 mm 5 mps 763 mmHg 56%
    17:00 +26°C° 0 mm 5 mps 763 mmHg 65%
    18:00 +23°C° 0 mm 5 mps 763 mmHg 73%
    19:00 +21°C° 0 mm 5 mps 763 mmHg 82%
    20:00 +21°C° 0 mm 5 mps 763 mmHg 83%
    21:00 +20°C° 0 mm 5 mps 763 mmHg 84%
    22:00 +20°C° 0 mm 5 mps 763 mmHg 85%
    23:00 +19°C° 0 mm 5 mps 762 mmHg 85%
    Show more